Station 46072 (LLNR 27510) - CENTRAL ALEUTIANS 230 NM SW Dutch Harbor Image indicating link to RSS feed of recent meteorological observations for station 46072


Conditions at 46072 as of
(11:30 am HAST)
2130 GMT on 04/17/2024:
     

Click on the graph icon in the table below to see a time series plot of the last five days of that observation.

5-day plot - Wind Direction Wind Direction (WDIR):NNW ( 340 deg true )
5-day plot - Wind Speed Wind Speed (WSPD): 29.1 kts
5-day plot - Wind Gust Wind Gust (GST): 40.8 kts
5-day plot - Atmospheric Pressure Atmospheric Pressure (PRES):30.15 in
5-day plot - Water Temperature Water Temperature (WTMP): 39.4 °F
5-day plot - Wind Speed at 10 Meters Wind Speed at 10 meters (WSPD10M): 33.0 kts
5-day plot - Wind Speed at 20 Meters Wind Speed at 20 meters (WSPD20M): 35.0 kts
5-day plot -  Wind Speed, Wind Gust and Atmospheric Pressure Combined plot of Wind Speed, Gust, and Air Pressure
Supplemental Measurements
Highest 1-minute Wind Speed
Time (HAST)5-day plot - 1-Minute Wind Speed WSPD 5-day plot - 1-Minute Wind Direction WDIR
11:23 am 33.0 kts-
Previous observations
TIME
(HAST)
5-day plot - Wind Direction
WDIR
 
5-day plot - Wind Speed
WSPD
kts
5-day plot - Wind Gust
GST
kts
5-day plot - Wave Height
WVHT
ft
5-day plot - Dominant Wave Period
DPD
sec
5-day plot - Average Wave Period
APD
sec
5-day plot - Mean Wave Direction
MWD
 
5-day plot - Atmospheric Pressure
PRES
in
5-day plot - Pressure Tendency
PTDY
in
5-day plot - Air Temperature
ATMP
°F
5-day plot - Water Temperature
WTMP
°F
5-day plot - Dew Point
DEWP
°F
5-day plot - Salinity
SAL
psu
5-day plot - Visibility
VIS
nmi
5-day plot - Tide (above MLLW)
TIDE
ft
2024-04-17 11:20 amNNW 25.3 35.0 13.1 107.0 N30.14-- 39.4----
2024-04-17 11:10 amNNW 23.3 29.1 13.1-7.0 N30.14-- 39.4----
2024-04-17 11:00 amNNW 21.4 27.2----30.15+0.01- 39.4----
2024-04-17 10:50 amNNW 25.3 31.1 13.1 116.9 N30.15-- 39.4----
2024-04-17 10:40 amNNW 25.3 35.0 13.1-6.9 N30.15-- 39.4----
2024-04-17 10:30 amNNW 25.3 31.1----30.14-- 39.4----
2024-04-17 10:20 amNNW 25.3 35.0 12.5 96.7 N30.14-- 39.4----
2024-04-17 10:10 amNNW 25.3 33.0 12.5-6.7 N30.14-- 39.4----
2024-04-17 10:00 amNNW 25.3 33.0----30.14+0.01- 39.4----
2024-04-17 09:50 amNNW 25.3 33.0 13.5 107.0 N30.15-- 39.4----
2024-04-17 09:40 amNNW 25.3 33.0----30.15-- 39.4----
2024-04-17 09:30 amNNW 21.4 29.1----30.15-- 39.4----
2024-04-17 09:20 am NW 23.3 29.1 13.5 107.0 N30.15-- 39.4----
2024-04-17 09:10 am NW 27.2 35.0 13.5-7.0 N30.15-- 39.4----
2024-04-17 09:00 amNNW 25.3 31.1----30.15+0.02- 39.4----
2024-04-17 08:50 amNNW 23.3 29.1 11.2 96.4 N30.14-- 39.4----
2024-04-17 08:40 amNNW 23.3 31.1 11.2-6.4 N30.15-- 39.4----
2024-04-17 08:30 amNNW 23.3 31.1----30.14-- 39.4----
2024-04-17 08:20 amNNW 23.3 29.1 11.8 96.7 N30.14-- 39.4----
2024-04-17 08:10 amNNW 23.3 29.1 11.8-6.7 N30.14-- 39.4----
2024-04-17 08:00 amNNW 23.3 31.1----30.14+0.01- 39.4----
2024-04-17 07:50 amNNW 25.3 31.1 12.8 107.0NNW30.14-- 39.4----
2024-04-17 07:40 amNNW 25.3 31.1 12.8-7.0NNW30.14-- 39.4----
2024-04-17 07:30 amNNW 23.3 31.1----30.14-- 39.4----
2024-04-17 07:20 amNNW 25.3 29.1 13.8 107.1 N30.14-- 39.4----
2024-04-17 07:10 amNNW 23.3 29.1----30.13-- 39.4----
2024-04-17 07:00 amNNW 23.3 31.1 13.8-7.1 N30.13+0.00- 39.4----
2024-04-17 06:50 amNNW 21.4 29.1 13.8 107.1 N30.14-- 39.4----
2024-04-17 06:40 amNNW 25.3 33.0 13.8-7.1 N30.13-- 39.4----
2024-04-17 06:30 amNNW 25.3 33.0----30.14-- 39.4----
2024-04-17 06:20 amNNW 25.3 33.0 14.1 107.1 N30.14-- 39.4----
2024-04-17 06:10 amNNW 25.3 31.1 14.1-7.1 N30.13-- 39.4----
2024-04-17 06:00 amNNW 25.3 33.0----30.13+0.01- 39.4----
2024-04-17 05:50 amNNW 25.3 33.0 14.8 107.2NNW30.13-- 39.4----
2024-04-17 05:40 amNNW 23.3 31.1----30.13-- 39.4----
2024-04-17 05:30 amNNW 25.3 33.0----30.13-- 39.4----
2024-04-17 05:20 amNNW 25.3 31.1 14.1 117.2 N30.13-- 39.4----
2024-04-17 05:10 amNNW 25.3 33.0 14.1-7.2 N30.13-- 39.4----
2024-04-17 05:00 amNNW 25.3 31.1----30.13+0.01- 39.4----
2024-04-17 04:50 amNNW 27.2 33.0----30.12-- 39.4----
2024-04-17 04:40 amNNW 27.2 36.9----30.12-- 39.4----
2024-04-17 04:30 amNNW 25.3 33.0----30.12-- 39.4----
2024-04-17 04:20 amNNW 25.3 31.1 15.1 107.6NNW30.13-- 39.4----
2024-04-17 04:10 amNNW 23.3 33.0 15.1-7.6NNW30.13-- 39.4----
2024-04-17 04:00 amNNW 23.3 31.1----30.13+0.02- 39.4----
2024-04-17 03:50 amNNW 25.3 35.0 14.1 107.5NNW30.13-- 39.4----
2024-04-17 03:40 amNNW 23.3 33.0 14.1-7.5NNW30.13-- 39.4----
2024-04-17 03:30 amNNW 27.2 36.9----30.13-- 39.4----
2024-04-17 03:20 amNNW 27.2 35.0 14.1 107.3NNW30.13-- 39.4----
2024-04-17 03:10 amNNW 27.2 36.9 14.1-7.3NNW30.12-- 39.4----
2024-04-17 03:00 amNNW 27.2 33.0----30.12+0.03- 39.4----
2024-04-17 02:50 amNNW 29.1 36.9 12.8 107.1 N30.11-- 39.4----
2024-04-17 02:40 amNNW 27.2 36.9----30.11-- 39.4----
2024-04-17 02:30 amNNW 25.3 35.0----30.11-- 39.4----
2024-04-17 02:20 amNNW 25.3 35.0 13.1 107.1NNW30.11-- 39.4----
2024-04-17 02:10 amNNW 25.3 33.0----30.11-- 39.4----
2024-04-17 02:00 amNNW 25.3 33.0----30.11+0.04- 39.4----
2024-04-17 01:50 amNNW 27.2 36.9 12.1 96.9 NW30.11-- 39.4----
2024-04-17 01:40 amNNW 27.2 35.0----30.11-- 39.4----
2024-04-17 01:30 amNNW 27.2 33.0----30.11-- 39.4----
2024-04-17 01:20 amNNW 27.2 35.0 14.8 117.4NNW30.11-- 39.4----
2024-04-17 01:10 amNNW 27.2 36.9 14.8-7.4NNW30.11-- 39.4----
2024-04-17 01:00 am N 27.2 36.9----30.11+0.05- 39.4----
2024-04-17 12:50 amNNW 25.3 35.0 12.5 117.0 N30.10-- 39.4----
2024-04-17 12:40 amNNW 25.3 35.0 12.5-7.0 N30.10-- 39.4----
2024-04-17 12:30 amNNW 27.2 35.0----30.10-- 39.4----
2024-04-17 12:20 amNNW 29.1 38.9 11.8 106.9NNW30.10-- 39.4----
2024-04-17 12:10 amNNW 27.2 35.0 11.8-6.9NNW30.09-- 39.4----
2024-04-17 12:00 amNNW 29.1 35.0----30.09+0.04- 39.4----
2024-04-16 11:50 pmNNW 29.1 35.0 12.1 106.8NNW30.09-- 39.4----
2024-04-16 11:40 pmNNW 29.1 36.9----30.08-- 39.4----
2024-04-16 11:30 pmNNW 27.2 35.0----30.08-- 39.4----
2024-04-16 11:20 pmNNW 29.1 35.0----30.08-- 39.4----
2024-04-16 11:10 pmNNW 27.2 35.0----30.07-- 39.4----
2024-04-16 11:00 pmNNW 27.2 35.0----30.07+0.06- 39.4----
2024-04-16 10:50 pmNNW 27.2 35.0 12.5 107.1 NW30.07-- 39.4----
2024-04-16 10:40 pm N 27.2 35.0----30.07-- 39.4----
2024-04-16 10:30 pm N 27.2 35.0----30.07-- 39.4----
2024-04-16 10:20 pmNNW 27.2 35.0 12.1 86.6NNW30.07-- 39.4----
2024-04-16 10:10 pmNNW 25.3 31.1----30.07-- 39.4----
2024-04-16 10:00 pmNNW 27.2 35.0----30.06+0.09- 39.4----
2024-04-16 09:50 pmNNW 27.2 36.9 11.2 86.5NNW30.06-- 39.4----
2024-04-16 09:40 pmNNW 27.2 33.0----30.06-- 39.4----
2024-04-16 09:30 pmNNW 27.2 35.0----30.05-- 39.4----
2024-04-16 09:20 pmNNW 27.2 36.9 11.8 96.4NNW30.05-- 39.4----
2024-04-16 09:10 pmNNW 27.2 35.0 11.8-6.4NNW30.05-- 39.4----
2024-04-16 09:00 pm N 27.2 35.0----30.04+0.09- 39.4----
2024-04-16 08:50 pmNNW 29.1 36.9 11.8 96.5WNW30.03-- 39.4----
2024-04-16 08:40 pmNNW 27.2 33.0----30.03-- 39.4----
2024-04-16 08:30 pmNNW 25.3 31.1----30.02-- 39.4----
2024-04-16 08:20 pmNNW 25.3 33.0 10.5 86.2NNW30.02-- 39.4----
2024-04-16 08:10 pmNNW 27.2 33.0 10.5-6.2NNW30.01-- 39.4----
2024-04-16 08:00 pmNNW 25.3 31.1----30.01+0.09- 39.4----
2024-04-16 07:50 pmNNW 25.3 33.0 10.8 86.1 NW30.01-- 39.4----
2024-04-16 07:40 pmNNW 29.1 38.9 10.8-6.1 NW30.00-- 39.4----
2024-04-16 07:30 pmNNW 25.3 31.1----29.99-- 39.4----
2024-04-16 07:20 pmNNW 27.2 35.0 10.2 86.0 NW29.99-- 39.4----
2024-04-16 07:10 pmNNW 29.1 35.0 10.2-6.0 NW29.99-- 39.4----
2024-04-16 07:00 pmNNW 29.1 36.9----29.98+0.06- 39.4----
2024-04-16 06:50 pmNNW 27.2 33.0 9.8 65.9NNW29.97-- 39.4----
2024-04-16 06:40 pmNNW 25.3 31.1----29.97-- 39.4----
2024-04-16 06:30 pmNNW 25.3 33.0----29.97-- 39.4----
2024-04-16 06:20 pmNNW 27.2 35.0 10.2 66.1NNW29.97-- 39.4----
2024-04-16 06:10 pmNNW 27.2 35.0 10.2-6.1NNW29.96-- 39.4----
2024-04-16 06:00 pmNNW 29.1 35.0----29.96+0.06- 39.6----
2024-04-16 05:50 pmNNW 29.1 36.9 9.5 116.0 W29.95-- 39.6----
2024-04-16 05:40 pmNNW 27.2 36.9----29.94-- 39.4----
2024-04-16 05:30 pmNNW 27.2 35.0----29.94-- 39.4----
2024-04-16 05:20 pmNNW 27.2 35.0 8.5 116.1WSW29.93-- 39.6----
2024-04-16 05:10 pmNNW 27.2 35.0 8.5-6.1WSW29.93-- 39.6----
2024-04-16 05:00 pmNNW 27.2 33.0----29.92+0.04- 39.6----
2024-04-16 04:50 pmNNW 23.3 31.1 9.2 116.4 W29.92-- 39.6----
2024-04-16 04:40 pmNNW 23.3 31.1----29.92-- 39.6----
2024-04-16 04:30 pm NW 23.3 31.1----29.91-- 39.6----
2024-04-16 04:20 pm NW 23.3 29.1 9.5 116.4WSW29.92-- 39.6----
2024-04-16 04:10 pm NW 23.3 29.1 9.5-6.4WSW29.91-- 39.6----
2024-04-16 04:00 pm NW 23.3 29.1----29.91+0.03- 39.6----
2024-04-16 03:50 pm NW 25.3 31.1 8.5 126.0WSW29.91-- 39.6----
2024-04-16 03:40 pm NW 25.3 33.0----29.91-- 39.6----
2024-04-16 03:30 pmNNW 25.3 31.1----29.91-- 39.6----
2024-04-16 03:20 pmNNW 25.3 33.0 8.2 126.2WSW29.90-- 39.6----
2024-04-16 03:10 pmNNW 25.3 33.0 8.2-6.2WSW29.91-- 39.6----
2024-04-16 03:00 pmNNW 27.2 33.0----29.90+0.02- 39.6----
2024-04-16 02:50 pmNNW 27.2 33.0 9.2 116.6WSW29.90-- 39.6----
2024-04-16 02:40 pmNNW 25.3 31.1----29.89-- 39.6----
2024-04-16 02:30 pmNNW 25.3 31.1----29.89-- 39.6----
2024-04-16 02:20 pmNNW 23.3 29.1 8.2 116.9WSW29.89-- 39.6----
2024-04-16 02:10 pm NW 21.4 29.1 8.2-6.9WSW29.89-- 39.6----
2024-04-16 02:00 pm NW 21.4 25.3----29.89+0.02- 39.6----
2024-04-16 01:50 pm NW 21.4 25.3 8.5 117.2WSW29.88-- 39.6----
2024-04-16 01:40 pm NW 19.4 27.2----29.88-- 39.6----
2024-04-16 01:10 pm NW 17.5 23.3 8.9-7.3WSW29.88-- 39.6----
2024-04-16 01:00 pm NW 17.5 23.3----29.88+0.02- 39.6----
2024-04-16 12:50 pm NW 17.5 23.3 7.5 117.0WSW29.88-- 39.6----
2024-04-16 12:40 pm NW 19.4 23.3 7.5-7.0WSW29.88-- 39.6----
2024-04-16 12:30 pm NW 17.5 21.4----29.88-- 39.4----
2024-04-16 12:20 pm NW 19.4 23.3 7.5 117.0WSW29.88-- 39.4----
2024-04-16 12:10 pm NW 17.5 23.3 7.5-7.0WSW29.88-- 39.4----
2024-04-16 12:00 pm NW 15.5 21.4----29.88+0.02- 39.6----
2024-04-16 11:50 am NW 15.5 19.4 7.5 117.2WSW29.88-- 39.6----
2024-04-16 11:40 am NW 17.5 21.4----29.88-- 39.6----
2024-04-16 11:30 am NW 17.5 21.4----29.87-- 39.4----
2024-04-16 11:20 am NW 15.5 19.4 7.9 117.4WSW29.87-- 39.6----
2024-04-16 11:10 am NW 15.5 19.4 7.9-7.4WSW29.87-- 39.4----
2024-04-16 11:00 am NW 15.5 17.5----29.87+0.01- 39.4----
2024-04-16 10:50 am NW 15.5 19.4 7.9 137.6WSW29.87-- 39.4----

Detailed Wave Summary
for 46072 as of (11:10 am HAST)
2110 GMT on 04/17/2024:

These wave data are displayed in rounded times.

     

Click on the graph icon in the table below to see a time series plot of the last five days of that observation.

5-day plot - Significant Wave Height Significant Wave Height (WVHT): 13.1 ft
5-day plot - Swell Height Swell Height (SwH): 8.5 ft
5-day plot - Swell Period Swell Period (SwP): 10.0 sec
5-day plot - Swell Direction Swell Direction (SwD): N
5-day plot - Wind Wave Height Wind Wave Height (WWH): 9.8 ft
5-day plot - Wind Wave Period Wind Wave Period (WWP): 7.7 sec
5-day plot - Wind Wave Direction Wind Wave Direction (WWD): N
5-day plot - Wave Steepness Wave Steepness (STEEPNESS): AVERAGE
5-day plot - Average Wave Period Average Wave Period (APD): 7.0 sec
Previous observations
TIME
(HAST)
5-day plot - Wave Height
WVHT
ft
5-day plot - Swell Height
SwH
ft
5-day plot - Swell Period
SwP
sec
5-day plot - Swell Direction
SwD
 
5-day plot - Wind Wave Height
WWH
ft
5-day plot - Wind Wave Period
WWP
sec
5-day plot - Wind Wave Direction
WWD
 
5-day plot - Wave Steepness
STEEPNESS
 
5-day plot - Average Wave Period
APD
sec
2024-04-17 10:40 am 13.1 6.2 10.8 N 11.5 9.1 N AVERAGE 6.9
2024-04-17 10:10 am 12.5 6.6 10.8 N 10.8 9.1 N STEEP 6.7
2024-04-17 09:40 am 13.5 7.9 10.0 N 10.5 7.1 NNW STEEP 7.0
2024-04-17 09:10 am 13.5 0.0-- 13.5 10.0- STEEP 7.0
2024-04-17 08:40 am 11.2 3.3 14.8 NE 10.8 9.1 N STEEP 6.4
2024-04-17 08:10 am 11.8 0.0-- 11.8 9.1 N STEEP 6.7
2024-04-17 07:40 am 12.8 0.0-- 12.8 10.0 NNW AVERAGE 7.0
2024-04-17 07:10 am 13.8 9.8 10.0 N 9.8 7.7 NNW STEEP 7.1
2024-04-17 06:40 am 13.8 0.0-- 13.8 10.0 N STEEP 7.1
2024-04-17 06:10 am 14.1 0.0-- 14.1 10.0 N STEEP 7.1
2024-04-17 05:40 am 14.8 0.0-- 14.8 10.0 NNW STEEP 7.2
2024-04-17 05:10 am 14.1 9.8 10.8 N 10.2 8.3 NNW AVERAGE 7.2
2024-04-17 04:10 am 15.1 11.5 10.0NNW 9.5 7.7 NNW STEEP 7.6
2024-04-17 03:40 am 14.1 10.5 10.0NNW 9.5 8.3 NNW STEEP 7.5
2024-04-17 03:10 am 14.1 8.5 10.0NNW 11.2 6.2 NNW STEEP 7.3
2024-04-17 02:40 am 12.8 0.0-- 12.8 10.0 N AVERAGE 7.1
2024-04-17 02:10 am 13.1 8.5 10.0NNW 9.8 7.7 NNW STEEP 7.1
2024-04-17 01:40 am 12.1 8.2 9.1 NW 9.2 7.1 NNW STEEP 6.9
2024-04-17 01:10 am 14.8 7.5 10.8NNW 12.8 7.1 NNW AVERAGE 7.4
2024-04-17 12:40 am 12.5 8.9 10.8 N 8.5 7.7 NW AVERAGE 7.0
2024-04-17 12:10 am 11.8 9.2 10.0NNW 7.5 7.1 NNW AVERAGE 6.9
2024-04-16 11:40 pm 12.1 7.9 10.0NNW 9.5 8.3 N AVERAGE 6.8
2024-04-16 10:40 pm 12.5 9.8 10.0 NW 7.5 7.7 NNW AVERAGE 7.1
2024-04-16 10:10 pm 12.1 0.0-- 12.1 8.3 NNW STEEP 6.6
2024-04-16 09:40 pm 11.2 0.0-- 11.2 8.3 NNW STEEP 6.5
2024-04-16 09:10 pm 11.8 6.9 9.1NNW 9.5 5.9 NNW STEEP 6.4
2024-04-16 08:40 pm 11.8 3.3 10.8 W 11.5 9.1 WNW STEEP 6.5
2024-04-16 08:10 pm 10.5 4.3 10.0 W 9.5 8.3 NNW STEEP 6.2
2024-04-16 07:40 pm 10.8 5.2 10.0WSW 9.8 8.3 NW STEEP 6.1
2024-04-16 07:10 pm 10.2 3.9 11.4 W 9.5 7.7 NW STEEP 6.0
2024-04-16 06:40 pm 9.8 3.9 10.8WSW 9.2 6.2 NNWVERY_STEEP 5.9
2024-04-16 06:10 pm 10.2 4.9 10.0WSW 8.9 6.2 NNWVERY_STEEP 6.1
2024-04-16 05:40 pm 9.5 5.6 10.8 W 7.9 7.7 WNW AVERAGE 6.0
2024-04-16 05:10 pm 8.5 5.9 11.4WSW 6.2 7.7 WNW AVERAGE 6.1
2024-04-16 04:40 pm 9.2 7.5 10.8 W 5.6 6.2 NW AVERAGE 6.4
2024-04-16 04:10 pm 9.5 6.6 10.8WSW 6.6 6.2 NW AVERAGE 6.4
2024-04-16 03:40 pm 8.5 5.6 12.1WSW 6.6 7.7 NW AVERAGE 6.0
2024-04-16 03:10 pm 8.2 5.9 12.1WSW 5.9 7.7 S SWELL 6.2
2024-04-16 02:40 pm 9.2 7.9 10.8WSW 4.6 6.2 W AVERAGE 6.6
2024-04-16 02:10 pm 8.2 7.2 10.8WSW 3.9 6.2 WSW SWELL 6.9
2024-04-16 01:40 pm 8.5 7.9 10.8WSW 3.3 5.0 W AVERAGE 7.2
2024-04-16 01:10 pm 8.9 8.2 11.4WSW 3.6 5.9 WSW SWELL 7.3
2024-04-16 12:40 pm 7.5 6.9 10.8WSW 3.3 6.2 WNW SWELL 7.0
2024-04-16 12:10 pm 7.5 6.9 11.4WSW 3.3 4.5 W SWELL 7.0
2024-04-16 11:40 am 7.5 7.2 10.8WSW 2.6 5.9 WSW SWELL 7.2
2024-04-16 11:10 am 7.9 7.5 10.8WSW 3.0 5.6 SW SWELL 7.4

Plot of wave energy versus frequency (and period)